EW0139 Weather Reports


time (UTC)temp
C
wind
direction
speed
KPH
gust
KPH
rain 1hr
cm
rain 24hr
cm
rain mn
cm
humidity
%
barometer
mb
20210122051550 -12 11 0.0 0.0 0.00 0.00 0.00 80 1017.2
20210122050544 -12 11 0.0 4.8 0.00 0.00 0.00 80 1017.3
20210122045534 -12 11 1.6 3.2 0.00 0.00 0.00 80 1017.1
20210122044544 -12 11 0.0 0.0 0.00 0.00 0.00 79 1017.1
20210122043546 -12 11 0.0 0.0 0.00 0.00 0.00 79 1017.3
20210122042540 -11 11 0.0 0.0 0.00 0.00 0.00 79 1017.2
20210122041553 -11 11 0.0 0.0 0.00 0.00 0.00 79 1017.2
20210122040548 -11 11 0.0 0.0 0.00 0.00 0.00 79 1017.1
20210122035545 -11 11 0.0 0.0 0.00 0.00 0.00 79 1017.8
20210122034545 -10 11 0.0 0.0 0.00 0.00 0.00 80 1017.8
20210122033557 -10 11 0.0 0.0 0.00 0.00 0.00 79 1017.8
20210122032549 -10 11 0.0 0.0 0.00 0.00 0.00 79 1017.7
20210122031535 -10 11 0.0 0.0 0.00 0.00 0.00 79 1017.7
20210122030547 -10 11 0.0 0.0 0.00 0.00 0.00 78 1017.8
20210122025544 -10 11 0.0 4.8 0.00 0.00 0.00 78 1017.8
20210122024542 -10 11 0.0 0.0 0.00 0.00 0.00 76 1017.8
20210122023536 -9 11 0.0 0.0 0.00 0.00 0.00 74 1017.3
20210122022553 -8 11 0.0 0.0 0.00 0.00 0.00 75 1017.3
20210122021549 -8 11 0.0 0.0 0.00 0.00 0.00 73 1017.3
20210122020551 -7 11 0.0 0.0 0.00 0.00 0.00 74 1016.9
20210122015539 -7 11 0.0 0.0 0.00 0.00 0.00 73 1016.7
20210122014551 -6 11 0.0 4.8 0.00 0.00 0.00 73 1016.7
20210122013552 -6 11 0.0 1.6 0.00 0.00 0.00 73 1016.7
20210122012550 -6 11 0.0 1.6 0.00 0.00 0.00 73 1016.7
20210122011546 -6 11 0.0 0.0 0.00 0.00 0.00 72 1016.7
20210122010538 -6 11 0.0 0.0 0.00 0.00 0.00 71 1016.7
20210122005537 -6 11 0.0 0.0 0.00 0.00 0.00 70 1016.6
20210122004533 -6 11 0.0 3.2 0.00 0.00 0.00 70 1016.6
20210122003549 -6 11 3.2 8.0 0.00 0.00 0.00 70 1016.6
20210122002543 -6 11 1.6 4.8 0.00 0.00 0.00 69 1016.6
20210122001542 -6 11 3.2 4.8 0.00 0.00 0.00 69 1016.6
20210122000544 -5 11 0.0 3.2 0.00 0.00 0.00 69 1016.5
20210121235536 -5 11 1.6 6.4 0.00 0.00 0.00 68 1016.5
20210121234547 -5 11 6.4 9.7 0.00 0.00 0.00 68 1016.5
20210121233544 -5 11 4.8 11.3 0.00 0.00 0.00 68 1016.4
20210121232540 -5 4 6.4 11.3 0.00 0.00 0.00 68 1016.5
20210121231551 -5 4 8.0 12.9 0.00 0.00 0.00 70 1016.5
20210121230553 -5 357 6.4 12.9 0.00 0.00 0.00 70 1016.6
20210121225546 -5 4 9.7 16.1 0.00 0.00 0.00 68 1016.6
20210121224546 -5 357 8.0 16.1 0.00 0.00 0.00 68 1016.6
20210121223539 -5 4 9.7 12.9 0.00 0.00 0.00 68 1017.2
20210121222544 -5 5 9.7 16.1 0.00 0.00 0.00 67 1017.3
20210121221553 -5 357 11.3 16.1 0.00 0.00 0.00 67 1017.3
20210121220545 -5 358 11.3 17.7 0.00 0.00 0.00 67 1016.5
20210121215546 -5 12 11.3 19.3 0.00 0.00 0.00 67 1016.2
20210121214537 -5 2 9.7 19.3 0.00 0.00 0.00 67 1016.2
20210121213545 -5 9 11.3 17.7 0.00 0.00 0.00 67 1016.1
20210121212552 -5 357 14.5 19.3 0.00 0.00 0.00 67 1016.1
20210121211547 -5 348 17.7 20.9 0.00 0.00 0.00 67 1016.1
20210121210545 -5 352 12.9 22.5 0.00 0.00 0.00 67 1016.7
20210121205538 -5 348 12.9 20.9 0.00 0.00 0.00 67 1016.7
20210121204538 -4 344 14.5 19.3 0.00 0.00 0.00 67 1016.7
20210121203538 -4 340 16.1 20.9 0.00 0.00 0.00 67 1016.7
20210121202544 -5 338 12.9 20.9 0.00 0.00 0.00 67 1016.8
20210121201551 -5 342 14.5 20.9 0.00 0.00 0.00 68 1016.8
20210121200548 -5 354 16.1 22.5 0.00 0.00 0.00 67 1016.9
20210121195543 -5 5 12.9 19.3 0.00 0.00 0.00 68 1016.9
20210121194538 -5 359 8.0 19.3 0.00 0.00 0.00 67 1016.9
20210121193536 -5 341 16.1 20.9 0.00 0.00 0.00 68 1017.1
20210121192552 -5 345 16.1 22.5 0.00 0.00 0.00 68 1017.0
20210121191550 -4 355 14.5 25.7 0.00 0.00 0.00 67 1017.0
20210121190546 -4 340 20.9 25.7 0.00 0.00 0.00 67 1016.9
20210121185540 -4 2 14.5 20.9 0.00 0.00 0.00 67 1016.9
20210121184537 -4 355 17.7 22.5 0.00 0.00 0.00 68 1016.9
20210121183535 -4 6 14.5 22.5 0.00 0.00 0.00 68 1016.9
20210121182549 -4 338 17.7 30.6 0.00 0.00 0.00 68 1017.1
20210121181544 -4 351 17.7 29.0 0.00 0.00 0.00 69 1017.1
20210121180541 -4 11 17.7 22.5 0.00 0.00 0.00 68 1017.1
20210121175536 -4 4 16.1 27.4 0.00 0.00 0.00 68 1017.0
20210121174538 -4 5 17.7 29.0 0.00 0.00 0.00 68 1017.0
20210121173536 -4 5 14.5 25.7 0.00 0.00 0.00 68 1016.9
20210121172551 -4 354 14.5 22.5 0.00 0.00 0.00 68 1016.7
20210121171547 -3 347 17.7 20.9 0.00 0.00 0.00 68 1016.7
20210121170541 -4 345 14.5 19.3 0.00 0.00 0.00 68 1016.7
20210121165540 -4 355 12.9 17.7 0.00 0.00 0.00 69 1016.5
20210121164538 -4 2 12.9 17.7 0.00 0.00 0.00 69 1016.5
20210121163552 -4 349 11.3 19.3 0.00 0.00 0.00 70 1016.4
20210121162546 -4 11 12.9 19.3 0.00 0.00 0.00 70 1016.2
20210121161545 -3 354 16.1 20.9 0.00 0.00 0.00 70 1016.2
20210121160541 -3 352 16.1 20.9 0.00 0.00 0.00 71 1015.6
20210121155536 -3 4 16.1 25.7 0.00 0.00 0.00 72 1015.5
20210121154550 -3 337 9.7 19.3 0.00 0.00 0.00 73 1015.5
20210121153547 -3 338 14.5 19.3 0.00 0.00 0.00 73 1015.1
20210121152544 -3 354 9.7 19.3 0.00 0.00 0.00 73 1015.0
20210121151540 -3 355 14.5 22.5 0.00 0.00 0.00 71 1015.0
20210121150555 -3 335 14.5 19.3 0.00 0.00 0.00 71 1014.7
20210121145548 -3 337 14.5 20.9 0.00 0.00 0.00 70 1014.6
20210121144545 -3 340 16.1 22.5 0.00 0.00 0.00 69 1014.6
20210121143609 -3 334 17.7 22.5 0.00 0.00 0.00 68 1014.2
20210121142539 -3 333 16.1 20.9 0.00 0.00 0.00 67 1014.1
20210121141535 -3 333 11.3 19.3 0.00 0.00 0.00 67 1014.1
20210121140550 -3 335 12.9 22.5 0.00 0.00 0.00 67 1013.7
20210121135545 -3 309 14.5 19.3 0.00 0.00 0.00 66 1013.5
20210121134542 -3 324 16.1 20.9 0.00 0.00 0.00 66 1013.5
20210121133541 -3 330 14.5 20.9 0.00 0.00 0.00 67 1013.5
20210121132551 -3 325 11.3 17.7 0.00 0.00 0.00 68 1013.3
20210121131546 -3 328 16.1 20.9 0.00 0.00 0.00 68 1013.3
20210121130547 -3 330 14.5 25.7 0.00 0.00 0.00 67 1012.8
20210121125542 -3 330 16.1 20.9 0.00 0.00 0.00 68 1012.8
20210121124539 -3 330 14.5 29.0 0.00 0.00 0.00 67 1012.8
20210121123536 -3 334 20.9 29.0 0.00 0.00 0.00 67 1012.6
20210121122548 -3 320 17.7 27.4 0.00 0.00 0.00 67 1012.8
20210121121545 -4 325 16.1 20.9 0.00 0.00 0.00 68 1012.8
20210121120723 -4 323 9.7 17.7 0.00 0.00 0.00 68 1012.4
20210121115534 -4 325 11.3 17.7 0.00 0.00 0.00 67 1012.2
20210121114552 -4 323 11.3 17.7 0.00 0.00 0.00 67 1012.2
20210121113548 -4 316 12.9 17.7 0.00 0.00 0.00 66 1012.1
20210121112539 -3 309 9.7 24.1 0.00 0.00 0.00 64 1012.7
20210121111553 -3 297 14.5 25.7 0.00 0.00 0.00 64 1012.7
20210121110553 -3 316 17.7 29.0 0.00 0.00 0.00 64 1012.2
20210121105555 -4 313 17.7 27.4 0.00 0.00 0.00 66 1012.2
20210121104539 -5 310 14.5 19.3 0.00 0.00 0.00 67 1012.2
20210121103540 -5 301 8.0 12.9 0.00 0.00 0.00 67 1012.1
20210121102551 -5 289 3.2 11.3 0.00 0.00 0.00 67 1012.0
20210121101543 -5 289 4.8 9.7 0.00 0.00 0.00 67 1012.0
20210121100538 -5 289 4.8 8.0 0.00 0.00 0.00 67 1011.6
20210121095535 -5 289 0.0 8.0 0.00 0.00 0.00 66 1011.4
20210121094558 -5 289 3.2 16.1 0.00 0.00 0.00 65 1011.4
20210121093545 -4 287 9.7 22.5 0.00 0.00 0.00 64 1011.1
20210121092539 -4 275 11.3 20.9 0.00 0.00 0.00 64 1010.7
20210121091538 -3 255 9.7 14.5 0.00 0.00 0.00 61 1010.7
20210121090553 -2 309 16.1 20.9 0.00 0.00 0.00 58 1011.2
20210121085545 -2 311 14.5 22.5 0.00 0.00 0.00 57 1011.0
20210121084545 -2 306 19.3 27.4 0.00 0.00 0.00 57 1011.0
20210121083539 -2 321 14.5 29.0 0.00 0.00 0.00 56 1010.8
20210121082550 -2 306 20.9 29.0 0.00 0.00 0.00 56 1010.7
20210121081547 -2 299 17.7 30.6 0.00 0.00 0.00 55 1010.7
20210121080542 -2 297 19.3 25.7 0.00 0.00 0.00 55 1009.9
20210121075537 -2 304 17.7 22.5 0.00 0.00 0.00 55 1010.5
20210121074533 -1 313 16.1 25.7 0.00 0.00 0.00 54 1010.5
20210121073538 -1 325 22.5 29.0 0.00 0.00 0.00 54 1010.3
20210121072552 -2 321 17.7 29.0 0.00 0.00 0.00 55 1009.4
20210121071603 -2 313 14.5 19.3 0.00 0.00 0.00 56 1009.4
20210121070543 -2 296 16.1 27.4 0.00 0.00 0.00 56 1009.2
20210121065539 -2 311 17.7 27.4 0.00 0.00 0.00 55 1009.0
20210121064537 -2 328 14.5 29.0 0.00 0.00 0.00 54 1009.0
20210121063555 -2 313 19.3 27.4 0.00 0.00 0.00 54 1008.9
20210121062607 -2 311 17.7 27.4 0.00 0.00 0.00 54 1008.6
20210121061536 -2 318 19.3 27.4 0.00 0.00 0.00 54 1008.6
20210121060543 -2 325 19.3 25.7 0.00 0.00 0.00 55 1008.5
20210121055553 -2 324 14.5 22.5 0.00 0.00 0.00 56 1008.5
20210121054553 -2 311 14.5 20.9 0.00 0.00 0.00 56 1008.5
20210121053540 -2 320 11.3 19.3 0.00 0.00 0.00 56 1008.6
20210121052534 -2 328 14.5 20.9 0.00 0.00 0.00 56 1008.4